AirNav   Everest Fuels
 
 472 users online  

95GA McIntosh Field Airport
Whitesburg, Georgia, USA

GOING TO WHITESBURG?


FAA INFORMATION EFFECTIVE 13 AUGUST 2020

Location

FAA Identifier: 95GA
Lat/Long: 33-27-21.4090N 084-56-34.7830W
33-27.356817N 084-56.579717W
33.4559469,-84.9429953
(estimated)
Elevation: 771 ft. / 235.0 m (surveyed)
Variation: 02W (1990)
From city: 3 miles SW of WHITESBURG, GA
Time zone: UTC -4 (UTC -5 during Standard Time)
Zip code: 30185

Airport Operations

Airport use: Private use. Permission required prior to landing
Activation date: 04/1993
Control tower: no
ARTCC: ATLANTA CENTER
FSS: MACON FLIGHT SERVICE STATION
Attendance: IREG
Wind indicator: yes
Segmented circle: no

Airport Communications

WX AWOS-3PT at CCO (12 nm SE): 118.975 (770-254-1617)
WX AWOS-3 at CTJ (15 nm NW): 118.175 (770-214-9667)
WX ASOS at FFC (19 nm E): 118.525 (770-487-1610)

Nearby radio navigation aids

VOR radial/distance  VOR name  Freq  Var
ATLr253/27.4ATLANTA VORTAC116.9005W
LGCr027/27.8LAGRANGE VORTAC115.6001E

 
NDB name  Hdg/Dist  Freq  Var  ID
CARROLLTON129/11.527804WGPQ --. .--. --.-
COWETA COUNTY319/16.623403WEQQ . --.- --.-
PECAT297/24.731605WFFC ..-. ..-. -.-.
PINE MOUNTAIN358/37.027203WPIM .--. .. --

Airport Services

Runway Information

Runway 4/22

Dimensions: 2480 x 50 ft. / 756 x 15 m
Surface: turf, in good condition
RUNWAY 4  RUNWAY 22
Traffic pattern: leftleft

Airport Ownership and Management from official FAA records

Ownership: Privately-owned
Owner: W. K. ZEIS, JR & D. M. GREENE
1656 N HIGHWAY 27
CARROLLTON, GA 30117-7506
Phone 770-834-4219
Manager: W. K. ZEIS, JR & D. M. GREENE
1656 N HIGHWAY 27
CARROLLTON, GA 30117-7506
Phone 770-834-4219

Additional Remarks

A52-04 04/22 TREES IN ALL QUADRANTS; HILLS ALONG EACH SIDE OF RY.
EXTENSIVE DEER ON AND INVOF ARPT.
POND WITH GEESE ADJACENT TO RW
REMOTE CONTROL AIRCRAFT PARK 1 MILE SW
FOR CD CTC ATLANTA APCH AT 678-364-6131.

Instrument Procedures

There are no published instrument procedures at 95GA.

Some nearby airports with instrument procedures:

KCCO - Newnan Coweta County Airport (12 nm SE)
KCTJ - West Georgia Regional Airport-O V Gray Field (15 nm NW)
KFFC - Atlanta Regional Airport-Falcon Field (19 nm E)
KPUJ - Paulding Northwest Atlanta Airport (27 nm N)
KLGC - LaGrange-Callaway Airport (28 nm S)
 
Loc | Ops | Rwys | IFR | FBO | Links
Com | Nav | Svcs | Stats | Notes
Area around 95GA (McIntosh Field Airport)
 
Road maps at: MapQuest Bing Google
 
Aerial photo
No photo
 
Sectional chart

 
Airport distance calculator
Flying to McIntosh Field Airport? Find the distance to fly.

From to 95GA

Sunrise and sunset
Times for 14-Aug-2020
 Local
(UTC-4)
 Zulu
(UTC)
Morning civil twilight06:3710:37
Sunrise07:0311:03
Sunset20:2500:25
Evening civil twilight20:5200:52

Current date and time
Zulu (UTC)  14-Aug-2020 07:40:31
Local (UTC-4)  14-Aug-2020 03:40:31
 
METAR
KCCO 
12nm SE 
140715Z AUTO 00000KT 10SM CLR 24/23 A2999 RMK AO2 T02370230
KCTJ 
15nm NW 
140715Z AUTO 00000KT 10SM SCT032 21/21 A3004 RMK AO2 T02100206
KFFC 
20nm E 
140653Z AUTO 00000KT 6SM BR CLR 22/22 A2998 RMK AO2 SLP145 T02170217
TAF
KATL 
27nm NE 
140520Z 1406/1512 13005KT P6SM VCSH SCT005 BKN050 FM140900 VRB03KT 4SM BR BKN008 FM141200 00000KT P6SM BKN015 FM141700 21007KT P6SM VCSH BKN040 TEMPO 1418/1422 VRB15G25KT 4SM TSRA BR OVC025CB FM150200 23004KT P6SM VCSH SCT035 BKN060 FM150900 23004KT P6SM BKN025
KFTY 
29nm NE 
140520Z 1406/1506 VRB03KT 6SM BR VCSH SCT060 BKN100 FM140900 VRB03KT 5SM BR BKN008 FM141200 00000KT P6SM BKN015 FM141700 21005KT P6SM VCSH BKN040 TEMPO 1418/1422 VRB15G25KT 4SM TSRA BR OVC025CB FM150200 23004KT P6SM VCSH SCT035 BKN060
NOTAMs
Click for the latest NOTAMs
NOTAMs are issued by the DoD/FAA and will open in a separate window not controlled by AirNav.

 

 
 

Would you like to see your business listed on this page?

 If your business provides an interesting product or service to pilots, flight crews, aircraft, or users of the McIntosh Field Airport, you should consider listing it here.  To start the listing process, click on the button below
 
Add a business
 

Other Pages about McIntosh Field Airport

Update a link
 
Copyright © AirNav, LLC. All rights reserved. Privacy Policy  Contact